Weather History for New River MCAS, NC

Change the Weather History Date:

Wednesday, November 7, 2012

  Actual Average Record
Temperature  
Mean Temperature 46 °F -  
Max Temperature 54 °F 66 °F 78 °F (2005)
Min Temperature 39 °F 44 °F 32 °F (2001)
Degree Days  
Heating Degree Days 18    
Moisture  
Dew Point 38 °F    
Average Humidity 74    
Maximum Humidity 89    
Minimum Humidity 58    
Precipitation  
Precipitation 0.01 in - - ()
Sea Level Pressure  
Sea Level Pressure 29.86 in    
Wind  
Wind Speed 11 mph (NNW)    
Max Wind Speed 15 mph    
Max Gust Speed 20 mph    
Visibility 9 miles    
Events Rain    
Averages and records for this station are not official NWS values.
T = Trace of Precipitation, MM = Missing Value Source: NWS Daily Summary

Daily Weather History Graph

Daily Weather History Graph

Search for Another Location

Airport:

Trip Planner

Search our weather history database for the weather conditions in past years. The results will help you decide how hot, cold, wet, or windy it might be!

Date:

Astronomy

Nov. 07, 2012 Rise Set
Actual Time 6:36 AM EST 5:10 PM EST
Civil Twilight 6:09 AM EST 5:36 PM EST
Nautical Twilight 5:39 AM EST 6:06 PM EST
Astronomical Twilight 5:10 AM EST 6:36 PM EST
Moon No Moon Rise 1:03 PM EST (11/7)
Length of Visible Light 11h 26m
Length of Day
10h 33m
Last Quarter, 43% of the Moon is Illuminated
Nov 7
Last Quarter
Nov 13
New
Nov 20
First Quarter
Nov 28
Full
Dec 6
Last Quarter

Hourly Weather History & Observations

Time (EST) Temp. Windchill Dew Point Humidity Pressure Visibility Wind Dir Wind Speed Gust Speed Precip Events Conditions
12:56 AM 43.0 °F 37.2 °F 37.9 °F 82% 29.86 in 8.0 mi North 10.4 mph - N/A   Overcast
1:56 AM 43.0 °F 36.4 °F 37.9 °F 82% 29.86 in 10.0 mi NNW 12.7 mph - 0.00 in   Overcast
2:26 AM 42.8 °F 37.0 °F 37.4 °F 81% 29.85 in 10.0 mi NNW 10.4 mph - N/A   Overcast
2:56 AM 42.1 °F 36.1 °F 39.0 °F 89% 29.84 in 4.0 mi NNW 10.4 mph - 0.00 in Rain Light Rain
3:56 AM 43.0 °F 37.7 °F 39.0 °F 86% 29.84 in 8.0 mi NNW 9.2 mph - 0.00 in   Overcast
4:56 AM 43.0 °F 36.8 °F 39.0 °F 86% 29.85 in 9.0 mi NNW 11.5 mph - 0.01 in   Overcast
5:56 AM 42.1 °F 36.6 °F 39.0 °F 89% 29.85 in 4.0 mi NNW 9.2 mph - 0.00 in Rain Light Rain
6:56 AM 43.0 °F 37.2 °F 39.0 °F 86% 29.85 in 7.0 mi NNW 10.4 mph - 0.00 in   Overcast
7:56 AM 43.0 °F 37.7 °F 39.0 °F 86% 29.87 in 10.0 mi NNW 9.2 mph - N/A   Overcast
8:56 AM 45.0 °F 39.7 °F 39.9 °F 82% 29.88 in 10.0 mi NNW 10.4 mph - N/A   Overcast
9:11 AM 44.6 °F 39.2 °F 39.2 °F 81% 29.87 in 10.0 mi NNW 10.4 mph - N/A   Overcast
9:46 AM 46.4 °F 42.4 °F 41.0 °F 81% 29.86 in 10.0 mi NNW 8.1 mph - N/A   Overcast
9:56 AM 46.9 °F - 41.0 °F 80% 29.87 in 10.0 mi NNW 11.5 mph - N/A   Overcast
10:56 AM 48.9 °F - 41.0 °F 74% 29.86 in 10.0 mi NNW 12.7 mph - N/A   Overcast
11:12 AM 50.0 °F - 41.0 °F 71% 29.85 in 10.0 mi North 12.7 mph - N/A   Overcast
11:56 AM 52.0 °F - 41.0 °F 66% 29.84 in 10.0 mi NNW 15.0 mph - N/A   Overcast
12:56 PM 54.0 °F - 41.0 °F 62% 29.82 in 10.0 mi NNW 13.8 mph - N/A   Overcast
1:03 PM 53.6 °F - 39.2 °F 58% 29.81 in 10.0 mi NNW 15.0 mph 18.4 mph N/A   Overcast
1:24 PM 51.8 °F - 39.2 °F 62% 29.81 in 10.0 mi NW 12.7 mph 19.6 mph N/A   Overcast
1:56 PM 52.0 °F - 39.9 °F 63% 29.82 in 10.0 mi NNW 12.7 mph - N/A   Overcast
2:36 PM 53.6 °F - 39.2 °F 58% 29.82 in 10.0 mi NNW 12.7 mph - N/A   Overcast
2:47 PM 51.8 °F - 39.2 °F 62% 29.82 in 10.0 mi NNW 12.7 mph - N/A   Mostly Cloudy
2:56 PM 51.1 °F - 39.0 °F 63% 29.83 in 10.0 mi NNW 11.5 mph - N/A   Scattered Clouds
3:56 PM 51.1 °F - 37.9 °F 61% 29.84 in 10.0 mi NNW 12.7 mph - N/A   Overcast
4:56 PM 48.9 °F - 37.0 °F 64% 29.86 in 10.0 mi NNW 10.4 mph - N/A   Overcast
5:56 PM 46.9 °F - 36.0 °F 66% 29.88 in 10.0 mi North 10.4 mph - N/A   Overcast
6:56 PM 46.0 °F 41.4 °F 36.0 °F 68% 29.90 in 10.0 mi NNW 9.2 mph - N/A   Overcast
7:56 PM 45.0 °F 41.2 °F 35.1 °F 68% 29.91 in 10.0 mi NW 6.9 mph - N/A   Overcast
8:56 PM 41.0 °F 39.0 °F 35.1 °F 79% 29.92 in 10.0 mi Variable 3.5 mph - N/A   Partly Cloudy
9:56 PM 41.0 °F 36.4 °F 34.0 °F 76% 29.93 in 10.0 mi NW 6.9 mph - N/A   Clear
10:56 PM 39.0 °F 35.7 °F 33.1 °F 79% 29.94 in 10.0 mi NW 4.6 mph - N/A   Clear
11:56 PM 39.0 °F 36.8 °F 34.0 °F 82% 29.94 in 10.0 mi West 3.5 mph - N/A   Scattered Clouds